This is the latest recevied weather packets stored in our database for station/object KY4EF. If no packets are shown the sender has not sent any weather packets the latest 10 day(s).
| Time | Temp. | Humidity | Pressure | Rain* | Wind** | Luminosity | Snow |
|---|---|---|---|---|---|---|---|
| 1778079272 | 15.56° C | 99% | 1014.7 hPa | 1.27 mm | - | 28 W/m² | - |
| 1778078970 | 15.56° C | 99% | 1014.1 hPa | 1.27 mm | - | 26 W/m² | - |
| 1778078667 | 15.56° C | 99% | 1014.4 hPa | 1.78 mm | - | 34 W/m² | - |
| 1778078365 | 15.56° C | 99% | 1014 hPa | 18.54 mm | - | 76 W/m² | - |
| 1778078062 | 15° C | 99% | 1013.9 hPa | 42.67 mm | - | 49 W/m² | - |
| 1778077760 | 15.56° C | 99% | 1014.1 hPa | 33.53 mm | - | 32 W/m² | - |
| 1778077458 | 15.56° C | 99% | 1014.4 hPa | 13.72 mm | - | 12 W/m² | - |
| 1778077155 | 15.56° C | 99% | 1013.9 hPa | 4.83 mm | - | 6 W/m² | - |
| 1778076853 | 15.56° C | 99% | 1013.5 hPa | 3.05 mm | - | 8 W/m² | - |
| 1778076551 | 15.56° C | 99% | 1013.1 hPa | 3.05 mm | - | 13 W/m² | - |
| 1778076248 | 15.56° C | 99% | 1013.1 hPa | 4.83 mm | - | 21 W/m² | - |
| 1778075945 | 15.56° C | 99% | 1012.9 hPa | 4.32 mm | - | 30 W/m² | - |
| 1778075642 | 15.56° C | 99% | 1013.1 hPa | 3.05 mm | - | 13 W/m² | - |
| 1778075338 | 15.56° C | 99% | 1013.1 hPa | 1.78 mm | - | 21 W/m² | - |
| 1778075034 | 15.56° C | 99% | 1012.9 hPa | 0 mm | - | 21 W/m² | - |
| 1778074731 | 16.11° C | 99% | 1012.9 hPa | 0 mm | - | 24 W/m² | - |
| 1778074428 | 16.11° C | 99% | 1012.7 hPa | 1.27 mm | - | 55 W/m² | - |
| 1778074125 | 16.11° C | 99% | 1012.8 hPa | 1.27 mm | - | 35 W/m² | - |
| 1778073822 | 16.11° C | 99% | 1012.7 hPa | 0 mm | - | 39 W/m² | - |
| 1778073520 | 16.11° C | 99% | 1012.6 hPa | 0 mm | - | 57 W/m² | - |
| 1778073216 | 16.11° C | 99% | 1012.5 hPa | 0 mm | - | 76 W/m² | - |
| 1778072914 | 16.11° C | 99% | 1012.7 hPa | 0 mm | - | 51 W/m² | - |
| 1778072610 | 15.56° C | 99% | 1013 hPa | 0 mm | - | 77 W/m² | - |
| 1778072308 | 16.11° C | 99% | 1012.7 hPa | 0 mm | - | 117 W/m² | - |
| 1778072006 | 15.56° C | 99% | 1013 hPa | 0 mm | - | 107 W/m² | - |
* Rain latest hour (hover to see other rain measurements)
** Current wind speed in m/s (hover to see current wind gust speed)